Regional Weather Roundup
Issued by NWS

Home | Current Version | Previous Version | Graphics & Text | Print | Product List | Glossary On
Versions: 1 2 3 4 5 6 7 8 9 10 11 12 13 14 15 16 17 18 19 20 21 22 23 24 25 26 27 28 29 30 31 32 33 34 35 36 37 38 39 40 41 42 43 44 45 46 47 48 49 50
000
ASUS43 KLOT 051206
RWRIL

ILLINOIS REGIONAL WEATHER ROUNDUP
NATIONAL WEATHER SERVICE CHICAGO/ROMEOVILLE IL
600 AM CST THU MAR 05 2015

NOTE: "FAIR" INDICATES FEW OR NO CLOUDS BELOW 12,000 FEET WITH NO
SIGNIFICANT WEATHER AND/OR OBSTRUCTIONS TO VISIBILITY.

* THESE STATIONS ARE NOT UNDER NWS QUALITY CONTROL. THEY ALSO MAY NOT
  REPORT WEATHER SUCH AS PRECIPITATION OR FOG.

ILZ001-002-007-009-015-016-024-051300-
NORTHWEST ILLINOIS

CITY           SKY/WX    TMP DP  RH WIND       PRES   REMARKS
MOLINE         CLEAR      2  -7  66 W8        30.48R WCI -12
6HR MIN TEMP:   2; 6HR MAX TEMP:  12;

STERLING*      CLEAR      0  -6  78 NW6       30.44R WCI -12
SAVANNA*       CLEAR     -4  -9  79 CALM      30.46R
$$

ILZ003-004-008-010-011-017-018-051300-
NORTH CENTRAL ILLINOIS

CITY           SKY/WX    TMP DP  RH WIND       PRES   REMARKS
ROCKFORD       PTCLDY    -1  -8  72 NW3       30.43R
6HR MIN TEMP:  -1; 6HR MAX TEMP:   6;

FREEPORT*      PTCLDY    -4 -10  79 CALM      30.44R
ROCHELLE*      CLEAR     -8 -12  83 CALM      30.43R
DE KALB*       CLEAR     -1  -7  75 NW5       30.39S WCI -11
PERU*          PTCLDY     2  -4  75 NW8       30.44S WCI -11
$$

ILZ005-006-012>014-019>023-051300-
NORTHEAST ILLINOIS

CITY           SKY/WX    TMP DP  RH WIND       PRES   REMARKS
CHICAGO-OHARE  MOCLDY     5  -8  55 NW10      30.40R WCI -10
6HR MIN TEMP:   4; 6HR MAX TEMP:  10;

CHICAGO-MIDWAY MOCLDY    10  -6  48 NW7       30.41R WCI  -1
6HR MIN TEMP:  10; 6HR MAX TEMP:  14;

AURORA         CLEAR     -1  -9  68 NW3       30.41R
6HR MIN TEMP:  -4; 6HR MAX TEMP:   7;

LANSING*       MOCLDY    11  -2  56 NW8       30.40R WCI   0
JOLIET*        PTCLDY     5  -3  69 CALM      30.43R
WAUKEGAN       PTCLDY     0 -10  63 W6        30.40R WCI -12
6HR MIN TEMP:   0; 6HR MAX TEMP:   5;

DUPAGE AIRPORT CLEAR      2  -7  66 NW5       30.39R WCI  -8
6HR MIN TEMP:   0; 6HR MAX TEMP:   9;

KANKAKEE*      MOCLDY     8   2  75 W6        30.41S WCI  -2
WHEELING       PTCLDY     4  -8  57 NW6       30.43R WCI  -7
6HR MIN TEMP:   4; 6HR MAX TEMP:  11;

MORRIS*        PTCLDY     1  -4  79 NW3       30.42S
ROMEOVILLE*    PTCLDY     5  -5  63 NW5       30.41S WCI  -4
NORTHERLY ISL    N/A     12  -2  53 W9          N/A  WCI   0
$$

LMZ740>746-051300-
SOUTHERN LAKE MICHIGAN

STATION/POSITION SKY/WX   TEMP    WIND        PRES    VSBY  WAVE
                          AIR SEA DIR/SP/G                  HT/PER
                          (F)     (DEG/KT/KT) (MB)    (MI)  (FT/S)
WAUKEGAN HARBOR             5                   N/A
HARRISON CRIB              11     300/ 14/ 16   N/A
BURNHAM HARBOR             12     280/  4/ 10   N/A
CALUMET HARBOR             11     280/  7/ 12 1027.8R
MICHIGAN CITY              15     280/  7/  8   N/A
$$

ILZ025>027-034>036-040-047-049-050-058-095>099-051300-
WEST-CENTRAL ILLINOIS

CITY           SKY/WX    TMP DP  RH WIND       PRES   REMARKS
QUINCY         MOCLDY     9   2  73 N8        30.48R WCI  -3
GALESBURG*     CLEAR     -1  -6  79 W7        30.47R WCI -14
MACOMB*        PTCLDY     4  -2  75 NW10      30.50R WCI -11
JACKSONVILLE*  MOCLDY    12   4  70 N3        30.46R
PITTSFIELD*    MOCLDY    12   4  70 N3        30.48R
$$

ILZ028>032-037-038-041>044-048-051>054-059>061-051300-
CENTRAL ILLINOIS

CITY           SKY/WX    TMP DP  RH WIND       PRES   REMARKS
PONTIAC        PTCLDY     7   1  74 NW7       30.43S WCI  -4
BLOOMINGTON    PTCLDY     9   1  69 N9        30.42S WCI  -4
DECATUR        CLOUDY    11   1  64 N10       30.42R WCI  -3
PEORIA         PTCLDY     8  -2  63 NW6       30.47R WCI  -2
6HR MIN TEMP:   8; 6HR MAX TEMP:  14;

LACON*         PTCLDY     5  -3  71 NW6       30.46R WCI  -6
LINCOLN*       MOCLDY    12   2  64 N6        30.46F WCI   3
SPRINGFIELD    MOCLDY    12   2  64 N7        30.44S WCI   1
6HR MIN TEMP:  12; 6HR MAX TEMP:  18;

TAYLORVILLE    CLOUDY    10   1  67 N10       30.43F WCI  -3
$$

ILZ033-039-045-046-055>057-062-063-051300-
EAST-CENTRAL ILLINOIS

CITY           SKY/WX    TMP DP  RH WIND       PRES   REMARKS
CHAMPAIGN      CLOUDY     8  -1  66 N9        30.41R WCI  -5
DANVILLE*      CLOUDY     6  -1  76 NW8       30.37R WCI  -7
MATTOON        MOCLDY     9   2  73 N10       30.38F WCI  -5
PARIS*         MOCLDY    10   4  77 NW8       30.41R WCI  -3
$$

ILZ079-100>102-051300-
SOUTHWEST ILLINOIS

CITY           SKY/WX    TMP DP  RH WIND       PRES   REMARKS
BELLEVILLE     CLOUDY    17   4  56 N10       30.46R WCI   4
CAHOKIA*       CLOUDY    19   7  59 N12       30.47R WCI   7
SPARTA*        CLOUDY    17   5  58 N7        30.46R WCI   8
$$

ILZ064>066-069>071-074>076-080>082-084>086-088>090-092>094-051300-
SOUTH-CENTRAL ILLINOIS

CITY           SKY/WX    TMP DP  RH WIND       PRES   REMARKS
CARBONDALE     MOCLDY    19   6  57 N12       30.43R WCI   7
6HR MIN TEMP:  19; 6HR MAX TEMP:  21;

CAIRO*         MOCLDY    23  13  64 N7        30.43R WCI  15
EFFINGHAM*     CLOUDY    13   0  55 N10       30.42F WCI   0
MARION         MOCLDY    19   7  58 CALM      30.42R
MT. VERNON     CLOUDY    18   1  49 N7        30.41S WCI   8
CENTRALIA*     CLOUDY    17   4  58 N14       30.42S WCI   3
SALEM*         CLOUDY    18   6  61 N9        30.42S WCI   6
METROPOLIS*    MOCLDY    21   9  59 N10G16    30.41R WCI  10
$$

ILZ067-068-072-073-078-083-087-091-051300-
SOUTHEAST ILLINOIS

CITY           SKY/WX    TMP DP  RH WIND       PRES   REMARKS
LAWRENCEVILLE  CLOUDY    17   5  59 N16       30.38F WCI   2
FLORA*         CLOUDY    15   5  65 N12       30.41F WCI   2
FAIRFIELD*     CLOUDY    17   6  63 N13       30.39F WCI   4
HARRISBURG*    MOCLDY    19   7  60 N6        30.40F WCI  11
ROBINSON*      CLOUDY    16   6  64 N10       30.40F WCI   3
CARMI*         CLOUDY    20  10  64 N14       30.38S WCI   7
$$

ABBREVIATIONS USED IN REMARKS
   TC - TEMPERATURE IN CELSIUS
  WCI - WIND CHILL INDEX
   HX - HEAT INDEX
  VSB - VISIBILITY
$$



USA.gov is the U.S. government's official web portal to all federal, state and local government web resources and services.